CW9583 Weather Reports


time (UTC)temp
F
wind
direction
speed
knots
gust
knots
rain 1hr
in
rain 24hr
in
rain mn
in
humidity
%
barometer
mb
20260509084929 52 67 0.0 0.9 0.00 0.00 0.00 85 1024.5
20260509081733 51 172 0.0 0.0 0.00 0.00 0.00 87 1024.5
20260509080704 51 185 0.0 0.0 0.00 0.00 0.00 87 1024.5
20260509075631 50 46 0.0 0.0 0.00 0.00 0.00 87 1024.5
20260509074648 50 46 0.0 0.0 0.00 0.00 0.00 87 1024.4
20260509073621 50 46 0.0 0.0 0.00 0.00 0.00 88 1024.3
20260509072617 49 46 0.0 0.0 0.00 0.00 0.00 88 1024.3
20260509071615 49 46 0.0 0.0 0.00 0.00 0.00 88 1024.3
20260509070635 49 46 0.0 0.9 0.00 0.00 0.00 86 1024.2
20260509065650 49 46 0.0 0.0 0.00 0.00 0.00 86 1024.1
20260509064705 49 46 0.0 0.0 0.00 0.00 0.00 86 1024.0
20260509063636 49 46 0.0 0.0 0.00 0.00 0.00 86 1024.0
20260509062628 49 47 0.0 0.9 0.00 0.00 0.00 85 1024.0
20260509061612 50 56 0.0 0.0 0.00 0.00 0.00 85 1024.0
20260509055437 50 56 0.0 0.0 0.00 0.00 0.00 84 1023.8
20260509054414 51 65 0.0 0.0 0.00 0.00 0.00 83 1023.8
20260509053434 51 141 0.0 0.0 0.00 0.00 0.00 82 1023.7
20260509052410 52 169 0.0 0.0 0.00 0.00 0.00 80 1023.6
20260509051406 52 169 0.0 0.0 0.00 0.00 0.00 79 1023.6
20260509050404 52 169 0.0 0.0 0.00 0.00 0.00 78 1023.5
20260509045356 53 168 0.0 0.0 0.00 0.00 0.00 77 1023.6
20260509044406 54 168 0.0 0.0 0.00 0.00 0.00 77 1023.5
20260509043342 54 195 0.0 0.9 0.00 0.00 0.00 76 1023.3
20260509042348 54 199 0.0 0.9 0.00 0.00 0.00 75 1023.3
20260509041343 55 189 0.0 0.0 0.00 0.00 0.00 74 1023.2
20260509040317 55 189 0.0 0.0 0.00 0.00 0.00 73 1023.1
20260509034239 56 221 0.0 0.0 0.00 0.00 0.00 69 1022.8
20260509033247 57 221 0.9 0.0 0.00 0.00 0.00 69 1022.6
20260509031210 58 217 0.9 3.5 0.00 0.00 0.00 67 1022.5
20260509030211 58 233 0.0 5.2 0.00 0.00 0.00 66 1022.4
20260509025226 58 224 0.9 5.2 0.00 0.00 0.00 65 1022.4
20260509024223 58 243 1.7 6.1 0.00 0.00 0.00 64 1022.4
20260509022049 59 208 1.7 6.1 0.00 0.00 0.00 62 1022.3
20260509021050 59 231 1.7 7.8 0.00 0.00 0.00 62 1022.2
20260509020049 60 150 1.7 7.8 0.00 0.00 0.00 60 1022.3
20260509015032 60 249 1.7 6.1 0.00 0.00 0.00 58 1022.1
20260509014049 61 224 1.7 6.1 0.00 0.00 0.00 58 1022.2
20260509013044 62 227 0.9 6.1 0.00 0.00 0.00 56 1022.1
20260509010942 61 245 2.6 8.7 0.00 0.00 0.00 58 1022.3
20260509005933 61 214 1.7 7.8 0.00 0.00 0.00 56 1022.4
20260509004949 61 250 1.7 9.6 0.00 0.00 0.00 57 1022.4
20260509003953 60 226 3.5 9.6 0.00 0.00 0.00 57 1022.4
20260509003007 61 309 2.6 8.7 0.00 0.00 0.00 57 1022.5
20260509000907 61 287 1.7 7.0 0.00 0.00 0.00 57 1022.4
20260508235853 60 208 3.5 7.8 0.00 0.00 0.00 57 1022.3
20260508234913 61 219 2.6 7.8 0.00 0.00 0.00 55 1022.3
20260508233919 62 292 2.6 9.6 0.00 0.00 0.00 55 1022.3
20260508232913 61 226 2.6 9.6 0.00 0.00 0.00 54 1022.4
20260508230731 60 231 2.6 7.8 0.00 0.00 0.00 58 1022.4
20260508225711 60 219 2.6 12.2 0.00 0.00 0.00 57 1022.4
20260508224658 60 210 3.5 12.2 0.00 0.00 0.00 59 1022.4
20260508223649 59 239 2.6 12.2 0.00 0.00 0.00 61 1022.5
20260508222636 60 261 3.5 10.4 0.00 0.00 0.00 59 1022.5
20260508221651 61 163 1.7 7.8 0.00 0.00 0.00 58 1022.5
20260508220650 60 191 1.7 7.0 0.00 0.00 0.00 60 1022.5
20260508215619 58 206 1.7 8.7 0.00 0.00 0.00 61 1022.4
20260508214627 58 188 2.6 10.4 0.00 0.00 0.00 61 1022.5
20260508213617 57 217 4.3 10.4 0.00 0.00 0.00 62 1022.6
20260508212641 59 218 0.9 4.3 0.00 0.00 0.00 58 1022.6
20260508211606 59 160 0.9 5.2 0.00 0.00 0.00 61 1022.6
20260508205441 58 221 2.6 11.3 0.00 0.00 0.00 60 1022.6
20260508204500 58 227 0.9 8.7 0.00 0.00 0.00 64 1022.4
20260508203428 56 285 2.6 9.6 0.00 0.00 0.00 67 1022.4
20260508202404 55 195 3.5 9.6 0.00 0.00 0.00 67 1022.4
20260508201426 56 246 2.6 7.8 0.00 0.00 0.00 66 1022.3
20260508200405 56 196 1.7 7.8 0.00 0.00 0.00 65 1022.4
20260508195411 56 312 1.7 6.1 0.00 0.00 0.00 67 1022.3
20260508194431 55 186 1.7 6.1 0.00 0.00 0.00 66 1022.3
20260508192322 53 258 4.3 12.2 0.00 0.00 0.00 71 1022.4
20260508191320 53 212 4.3 11.3 0.00 0.00 0.00 72 1022.3
20260508190311 52 192 3.5 11.3 0.00 0.00 0.00 73 1022.3
20260508184129 53 242 3.5 7.8 0.00 0.00 0.00 73 1022.3
20260508183108 52 216 1.7 7.0 0.00 0.00 0.00 75 1022.3
20260508181017 52 212 3.5 7.0 0.00 0.00 0.00 76 1021.9
20260508175948 52 214 2.6 10.4 0.00 0.00 0.00 77 1021.9
20260508173747 52 233 2.6 7.0 0.00 0.00 0.00 78 1021.7
20260508172810 52 227 1.7 7.0 0.00 0.00 0.00 79 1021.5
20260508171825 51 205 1.7 9.6 0.00 0.00 0.00 79 1021.3
20260508165658 51 230 2.6 7.8 0.00 0.00 0.00 79 1021.2
20260508164641 51 231 0.9 7.8 0.00 0.00 0.00 81 1021.0
20260508163641 51 128 1.7 4.3 0.00 0.00 0.00 82 1020.9
20260508162658 51 200 0.9 7.0 0.00 0.00 0.00 82 1020.9
20260508161658 51 221 1.7 7.0 0.00 0.00 0.00 81 1020.8
20260508160652 51 162 1.7 5.2 0.00 0.00 0.00 81 1020.7
20260508155716 51 149 1.7 7.8 0.00 0.00 0.00 82 1020.9
20260508154716 50 229 1.7 8.7 0.00 0.00 0.00 81 1021.0
20260508153740 50 165 2.6 8.7 0.00 0.00 0.00 83 1021.2
20260508152757 49 245 3.5 7.8 0.00 0.00 0.00 84 1021.4
20260508151729 49 154 2.6 7.8 0.00 0.00 0.00 85 1021.3
20260508150742 49 157 0.9 5.2 0.00 0.00 0.00 86 1021.1
20260508145744 49 242 0.9 4.3 0.00 0.00 0.00 87 1021.1
20260508143550 49 204 1.7 7.0 0.00 0.00 0.00 88 1020.8
20260508142533 49 196 2.6 7.0 0.00 0.00 0.00 88 1020.5
20260508141502 49 184 1.7 6.1 0.00 0.00 0.00 88 1020.3
20260508140526 49 195 0.9 6.1 0.00 0.00 0.00 88 1020.1
20260508135512 49 214 0.9 3.5 0.00 0.00 0.00 89 1019.9
20260508133352 48 166 0.0 2.6 0.00 0.00 0.00 90 1019.6
20260508132415 48 207 0.0 1.7 0.00 0.00 0.00 90 1019.6
20260508131410 48 166 0.0 2.6 0.00 0.00 0.00 90 1019.5
20260508130336 48 199 0.0 1.7 0.00 0.00 0.00 91 1019.2
20260508125322 48 154 0.0 2.6 0.00 0.00 0.00 91 1019.1
20260508124329 48 71 0.0 0.9 0.00 0.00 0.00 91 1019.0
20260508123256 48 39 0.0 0.0 0.00 0.00 0.00 90 1019.0
20260508122233 48 131 0.0 0.0 0.00 0.00 0.00 90 1018.8
20260508121226 48 148 0.0 0.0 0.00 0.00 0.00 90 1018.8
20260508120218 48 100 0.0 0.9 0.00 0.00 0.00 90 1018.7
20260508115232 48 96 0.0 0.0 0.00 0.00 0.00 90 1018.8
20260508114225 48 80 0.0 0.0 0.00 0.00 0.00 89 1018.7
20260508113217 48 104 0.0 0.0 0.00 0.00 0.00 89 1018.6
20260508112207 48 34 0.0 0.9 0.00 0.00 0.00 89 1018.5
20260508111201 48 25 0.0 0.0 0.00 0.00 0.00 89 1018.3
20260508110135 48 49 0.0 0.0 0.00 0.00 0.00 89 1018.2
20260508105126 48 46 0.0 0.9 0.00 0.00 0.00 89 1018.1
20260508103023 48 70 0.0 0.0 0.00 0.00 0.00 90 1017.9
20260508101956 48 70 0.0 0.9 0.00 0.00 0.00 90 1017.8
20260508100943 48 49 0.0 1.7 0.00 0.00 0.00 90 1017.8
20260508095958 47 37 0.9 1.7 0.00 0.00 0.00 91 1017.7
20260508091542 49 107 0.0 0.0 0.00 0.00 0.00 88 1017.7